Previsão horária em Allendorf

Hoje, 16 Junho, Quarta-feira

Tempo Temperatura Precipitação Vento Pressão Humidade
00:00 +15°C° 0 mm 1 m/s 730 mmHg 95%
01:00 +14°C° 0 mm 1 m/s 730 mmHg 95%
02:00 +14°C° 0 mm 1 m/s 729 mmHg 95%
03:00 +14°C° 0 mm 1 m/s 729 mmHg 95%
04:00 +13°C° 0 mm 1 m/s 729 mmHg 95%
05:00 +15°C° 0 mm 1 m/s 729 mmHg 90%
06:00 +18°C° 0 mm 1 m/s 729 mmHg 86%
07:00 +19°C° 0 mm 1 m/s 729 mmHg 82%
08:00 +21°C° 0 mm 1 m/s 729 mmHg 75%
09:00 +23°C° 0 mm 2 m/s 729 mmHg 69%
10:00 +25°C° 0 mm 2 m/s 729 mmHg 62%
11:00 +26°C° 0.1 mm 2 m/s 728 mmHg 59%
12:00 +27°C° 0.1 mm 2 m/s 728 mmHg 55%
13:00 +28°C° 0.1 mm 2 m/s 728 mmHg 51%
14:00 +28°C° 0 mm 2 m/s 728 mmHg 53%
15:00 +28°C° 0 mm 2 m/s 727 mmHg 55%
16:00 +27°C° 0 mm 2 m/s 727 mmHg 57%
17:00 +27°C° 0 mm 2 m/s 727 mmHg 62%
18:00 +26°C° 0 mm 2 m/s 727 mmHg 67%
19:00 +25°C° 0 mm 2 m/s 727 mmHg 72%
20:00 +24°C° 0 mm 2 m/s 727 mmHg 77%
21:00 +22°C° 0 mm 1 m/s 727 mmHg 81%
22:00 +20°C° 0 mm 1 m/s 727 mmHg 85%
23:00 +20°C° 0 mm 1 m/s 727 mmHg 86%

Amanhã, 17 Junho, Quinta-feira

Tempo Temperatura Precipitação Vento Pressão Humidade
00:00 +19°C° 0 mm 1 m/s 727 mmHg 88%
01:00 +18°C° 0 mm 1 m/s 727 mmHg 90%
02:00 +18°C° 0 mm 1 m/s 727 mmHg 90%
03:00 +18°C° 0 mm 1 m/s 726 mmHg 90%
04:00 +16°C° 0 mm 1 m/s 726 mmHg 91%
05:00 +19°C° 0 mm 1 m/s 726 mmHg 85%
06:00 +21°C° 0 mm 1 m/s 727 mmHg 79%
07:00 +22°C° 0 mm 1 m/s 727 mmHg 73%
08:00 +24°C° 0 mm 2 m/s 727 mmHg 67%
09:00 +26°C° 0 mm 3 m/s 727 mmHg 60%
10:00 +28°C° 0 mm 4 m/s 727 mmHg 53%
11:00 +29°C° 0 mm 4 m/s 727 mmHg 51%
12:00 +29°C° 0 mm 4 m/s 727 mmHg 49%
13:00 +30°C° 0 mm 4 m/s 727 mmHg 46%
14:00 +31°C° 0 mm 3 m/s 727 mmHg 46%
15:00 +31°C° 0 mm 3 m/s 727 mmHg 46%
16:00 +31°C° 0 mm 3 m/s 727 mmHg 46%
17:00 +30°C° 0 mm 2 m/s 727 mmHg 54%
18:00 +29°C° 0 mm 1 m/s 727 mmHg 63%
19:00 +27°C° 0 mm 1 m/s 726 mmHg 71%
20:00 +25°C° 0.2 mm 1 m/s 727 mmHg 77%
21:00 +24°C° 0.2 mm 1 m/s 727 mmHg 82%
22:00 +22°C° 0.2 mm 1 m/s 727 mmHg 87%
23:00 +21°C° 0 mm 1 m/s 727 mmHg 89%

Depois de amanhã, 18 Junho, Sexta-feira

Tempo Temperatura Precipitação Vento Pressão Humidade
00:00 +21°C° 0 mm 1 m/s 727 mmHg 90%
01:00 +20°C° 0 mm 1 m/s 727 mmHg 92%
02:00 +20°C° 0.1 mm 1 m/s 727 mmHg 92%
03:00 +18°C° 0.1 mm 0 m/s 727 mmHg 92%
04:00 +17°C° 0.1 mm 0 m/s 727 mmHg 93%
05:00 +19°C° 0.2 mm 0 m/s 727 mmHg 91%
06:00 +20°C° 0.2 mm 0 m/s 727 mmHg 90%
07:00 +23°C° 0.2 mm 1 m/s 727 mmHg 88%
08:00 +25°C° 0.1 mm 1 m/s 727 mmHg 80%
09:00 +27°C° 0.1 mm 1 m/s 727 mmHg 71%
10:00 +28°C° 0.1 mm 1 m/s 727 mmHg 63%
11:00 +29°C° 0.5 mm 2 m/s 727 mmHg 60%
12:00 +30°C° 0.5 mm 2 m/s 727 mmHg 56%
13:00 +30°C° 0.5 mm 2 m/s 727 mmHg 53%
14:00 +31°C° 0 mm 2 m/s 727 mmHg 51%
15:00 +31°C° 0 mm 2 m/s 727 mmHg 50%
16:00 +31°C° 0 mm 2 m/s 727 mmHg 48%
17:00 +30°C° 0 mm 1 m/s 727 mmHg 55%
18:00 +29°C° 0 mm 1 m/s 727 mmHg 62%
19:00 +28°C° 0 mm 1 m/s 727 mmHg 68%
20:00 +25°C° 1.6 mm 1 m/s 727 mmHg 77%
21:00 +23°C° 1.6 mm 2 m/s 727 mmHg 85%
22:00 +19°C° 1.6 mm 3 m/s 727 mmHg 94%
23:00 +19°C° 1.5 mm 2 m/s 727 mmHg 94%

19 Junho, Sábado

Tempo Temperatura Precipitação Vento Pressão Humidade
00:00 +20°C° 1.5 mm 1 m/s 728 mmHg 95%
01:00 +17°C° 1.5 mm 0 m/s 728 mmHg 95%
02:00 +19°C° 0 mm 1 m/s 728 mmHg 96%
03:00 +18°C° 0 mm 1 m/s 728 mmHg 96%
04:00 +17°C° 0 mm 2 m/s 728 mmHg 97%
05:00 +17°C° 0 mm 2 m/s 728 mmHg 95%
06:00 +18°C° 0 mm 3 m/s 729 mmHg 93%
07:00 +18°C° 0 mm 3 m/s 729 mmHg 91%
08:00 +19°C° 0 mm 3 m/s 730 mmHg 84%
09:00 +20°C° 0 mm 3 m/s 730 mmHg 76%
10:00 +21°C° 0 mm 3 m/s 730 mmHg 68%
11:00 +22°C° 0 mm 3 m/s 730 mmHg 61%
12:00 +25°C° 0 mm 3 m/s 730 mmHg 55%
13:00 +26°C° 0 mm 2 m/s 730 mmHg 49%
14:00 +27°C° 0 mm 2 m/s 730 mmHg 47%
15:00 +27°C° 0 mm 2 m/s 730 mmHg 46%
16:00 +28°C° 0 mm 2 m/s 730 mmHg 44%
17:00 +27°C° 0 mm 2 m/s 730 mmHg 53%
18:00 +26°C° 0 mm 2 m/s 729 mmHg 62%
19:00 +24°C° 0 mm 2 m/s 729 mmHg 70%
20:00 +21°C° 0 mm 2 m/s 729 mmHg 77%
21:00 +20°C° 0 mm 2 m/s 729 mmHg 84%
22:00 +18°C° 0 mm 2 m/s 728 mmHg 91%
23:00 +18°C° 0 mm 2 m/s 728 mmHg 89%

20 Junho, Domingo

Tempo Temperatura Precipitação Vento Pressão Humidade
00:00 +18°C° 0 mm 2 m/s 728 mmHg 87%
01:00 +18°C° 0 mm 2 m/s 727 mmHg 86%
02:00 +18°C° 0 mm 2 m/s 727 mmHg 87%
03:00 +18°C° 0 mm 2 m/s 726 mmHg 89%
04:00 +18°C° 0 mm 2 m/s 726 mmHg 90%
05:00 +19°C° 0 mm 2 m/s 726 mmHg 86%
06:00 +21°C° 0 mm 2 m/s 726 mmHg 82%
07:00 +23°C° 0 mm 2 m/s 726 mmHg 78%
08:00 +25°C° 0 mm 2 m/s 726 mmHg 70%
09:00 +27°C° 0 mm 3 m/s 726 mmHg 63%
10:00 +29°C° 0 mm 4 m/s 726 mmHg 56%
11:00 +30°C° 0 mm 3 m/s 726 mmHg 52%
12:00 +31°C° 0 mm 3 m/s 726 mmHg 48%
13:00 +32°C° 0 mm 2 m/s 726 mmHg 44%
14:00 +30°C° 0.2 mm 3 m/s 726 mmHg 54%
15:00 +28°C° 0.2 mm 3 m/s 726 mmHg 63%
16:00 +25°C° 0.2 mm 3 m/s 726 mmHg 73%
17:00 +24°C° 1.1 mm 3 m/s 726 mmHg 79%
18:00 +23°C° 1.1 mm 2 m/s 726 mmHg 86%
19:00 +21°C° 1.1 mm 1 m/s 726 mmHg 92%
20:00 +20°C° 1.5 mm 2 m/s 726 mmHg 94%
21:00 +19°C° 1.5 mm 2 m/s 726 mmHg 96%
22:00 +19°C° 1.5 mm 2 m/s 726 mmHg 98%
23:00 +19°C° 0.4 mm 1 m/s 726 mmHg 98%

21 Junho, Segunda-feira

Tempo Temperatura Precipitação Vento Pressão Humidade
00:00 +19°C° 0.4 mm 1 m/s 725 mmHg 98%
01:00 +17°C° 0.4 mm 0 m/s 725 mmHg 98%
02:00 +19°C° 0 mm 1 m/s 725 mmHg 97%
03:00 +18°C° 0 mm 1 m/s 725 mmHg 97%
04:00 +18°C° 0 mm 1 m/s 725 mmHg 97%
05:00 +19°C° 0 mm 1 m/s 725 mmHg 95%
06:00 +19°C° 0 mm 1 m/s 725 mmHg 93%
07:00 +20°C° 0 mm 1 m/s 725 mmHg 92%
08:00 +21°C° 0 mm 2 m/s 725 mmHg 83%
09:00 +23°C° 0 mm 2 m/s 725 mmHg 74%
10:00 +25°C° 0 mm 2 m/s 725 mmHg 65%
11:00 +24°C° 0 mm 2 m/s 725 mmHg 68%
12:00 +24°C° 0 mm 2 m/s 725 mmHg 71%
13:00 +23°C° 0 mm 2 m/s 725 mmHg 74%
14:00 +21°C° 0.2 mm 2 m/s 725 mmHg 79%
15:00 +20°C° 0.2 mm 2 m/s 725 mmHg 84%
16:00 +19°C° 0.2 mm 2 m/s 725 mmHg 89%
17:00 +18°C° 0.5 mm 2 m/s 725 mmHg 91%
18:00 +19°C° 0.5 mm 1 m/s 725 mmHg 93%
19:00 +18°C° 0.5 mm 1 m/s 724 mmHg 95%
20:00 +18°C° 0.1 mm 1 m/s 724 mmHg 95%
21:00 +16°C° 0.1 mm 1 m/s 724 mmHg 95%
22:00 +16°C° 0.1 mm 1 m/s 724 mmHg 95%
23:00 +16°C° 0 mm 1 m/s 724 mmHg 96%
Mostrar mais